This is the latest recevied weather packets stored in our database for station/object KU9TRY. If no packets are shown the sender has not sent any weather packets the latest 1 day(s).
| Time | Temp. | Humidity | Pressure | Rain* | Wind** | Luminosity | Snow |
|---|---|---|---|---|---|---|---|
| 1778035524 | 21.67° C | 53% | 1009.4 hPa | 0 mm | - | 0 W/m² | - |
| 1778035220 | 21.67° C | 53% | 1009.4 hPa | 0 mm | - | 0 W/m² | - |
| 1778034916 | 21.67° C | 52% | 1009.3 hPa | 0 mm | - | 0 W/m² | - |
| 1778034614 | 21.67° C | 53% | 1009.4 hPa | 0 mm | - | 0 W/m² | - |
| 1778034009 | 21.67° C | 51% | 1009.5 hPa | 0 mm | - | 0 W/m² | - |
| 1778033706 | 21.67° C | 51% | 1009.4 hPa | 0 mm | - | 0 W/m² | - |
| 1778033101 | 21.11° C | 52% | 1009.5 hPa | 0 mm | - | 0 W/m² | - |
| 1778032495 | 21.67° C | 52% | 1009.6 hPa | 0 mm | - | 0 W/m² | - |
| 1778032192 | 21.67° C | 50% | 1009.8 hPa | 0 mm | - | 0 W/m² | - |
| 1778031889 | 21.67° C | 51% | 1009.8 hPa | 0 mm | - | 0 W/m² | - |
| 1778031585 | 21.67° C | 50% | 1009.6 hPa | 0 mm | - | 0 W/m² | - |
| 1778031283 | 21.67° C | 50% | 1009.3 hPa | 0 mm | - | 0 W/m² | - |
| 1778030979 | 21.11° C | 51% | 1009.5 hPa | 0 mm | - | 0 W/m² | - |
| 1778030676 | 21.11° C | 53% | 1009.4 hPa | 0 mm | - | 0 W/m² | - |
| 1778030373 | 20.56° C | 51% | 1009.5 hPa | 0 mm | - | 0 W/m² | - |
| 1778029767 | 21.11° C | 53% | 1009.4 hPa | 0 mm | - | 0 W/m² | - |
| 1778029466 | 21.11° C | 49% | 1009.4 hPa | 0 mm | - | 0 W/m² | - |
| 1778029161 | 21.67° C | 48% | 1009.3 hPa | 0 mm | - | 0 W/m² | - |
| 1778028860 | 21.67° C | 47% | 1009.3 hPa | 0 mm | - | 0 W/m² | - |
| 1778028554 | 21.67° C | 46% | 1009.1 hPa | 0 mm | - | 0 W/m² | - |
| 1778028253 | 21.67° C | 46% | 1009 hPa | 0 mm | - | 0 W/m² | - |
| 1778027645 | 21.67° C | 47% | 1008.9 hPa | 0 mm | - | 1 W/m² | - |
| 1778027342 | 21.67° C | 49% | 1008.9 hPa | 0 mm | - | 2 W/m² | - |
| 1778027038 | 21.67° C | 46% | 1008.9 hPa | 0 mm | - | 4 W/m² | - |
| 1778026733 | 21.67° C | 47% | 1009.2 hPa | 0 mm | - | 5 W/m² | - |
* Rain latest hour (hover to see other rain measurements)
** Current wind speed in m/s (hover to see current wind gust speed)